Estación de Petorca
Ultimos registro cada 15 minutos 25
| N° | Estación | Fecha / Hora | Temperatura | Humedad | Lluvia | Velocidad | Dirección | Radiación | Presion |
| 25 | Petorca | 06-09-2026 07:00 | 3,9 | 95,1 | 0 | 0 | 4 | 0,6 | 980,7 |
| 24 | Petorca | 06-09-2026 06:45 | 4,1 | 94,7 | 0 | 0 | 28 | 0,6 | 980,9 |
| 23 | Petorca | 06-09-2026 06:30 | 4,4 | 94,6 | 0 | 0,5 | 21 | 0,6 | 980,9 |
| 22 | Petorca | 06-09-2026 06:15 | 4,4 | 94,9 | 0 | 0 | 42 | 0,6 | 981 |
| 21 | Petorca | 06-09-2026 06:00 | 4,2 | 94,2 | 0 | 0 | 7 | 0,6 | 980,9 |
| 20 | Petorca | 06-09-2026 05:45 | 4,8 | 93,8 | 0 | 0 | 13 | 0,6 | 980,9 |
| 19 | Petorca | 06-09-2026 05:30 | 5,3 | 94,9 | 0 | 0,5 | 24 | 0,6 | 981 |
| 18 | Petorca | 06-09-2026 05:15 | 4,5 | 95 | 0 | 0 | 35 | 0,6 | 981,1 |
| 17 | Petorca | 06-09-2026 05:00 | 4,6 | 95 | 0 | 0,5 | 31 | 0,6 | 981 |
| 16 | Petorca | 06-09-2026 04:45 | 4,6 | 95,3 | 0 | 0 | 18 | 0,6 | 981,3 |
| 15 | Petorca | 06-09-2026 04:30 | 4,9 | 94,9 | 0 | 0 | 344 | 0,6 | 981,2 |
| 14 | Petorca | 06-09-2026 04:15 | 5 | 92,7 | 0 | 0 | 343 | 0,6 | 981,4 |
| 13 | Petorca | 06-09-2026 04:00 | 6 | 94,4 | 0 | 0 | 3 | 0,6 | 981,5 |
| 12 | Petorca | 06-09-2026 03:45 | 5,3 | 94 | 0 | 0 | 28 | 0,6 | 981,6 |
| 11 | Petorca | 06-09-2026 03:30 | 5,4 | 93,8 | 0 | 0 | 20 | 0,6 | 981,8 |
| 10 | Petorca | 06-09-2026 03:15 | 5,9 | 93,3 | 0 | 0 | 18 | 0,6 | 981,9 |
| 9 | Petorca | 06-09-2026 03:00 | 6,1 | 94 | 0 | 0,5 | 41 | 0,6 | 982,1 |
| 8 | Petorca | 06-09-2026 02:45 | 5,7 | 93,4 | 0 | 0 | 21 | 0,6 | 982,3 |
| 7 | Petorca | 06-09-2026 02:30 | 6,4 | 92,5 | 0 | 0 | 13 | 0,6 | 982,4 |
| 6 | Petorca | 06-09-2026 02:15 | 6,9 | 91,5 | 0 | 0 | 35 | 0,6 | 982,5 |
| 5 | Petorca | 06-09-2026 02:00 | 8,3 | 85,1 | 0 | 1 | 13 | 0,6 | 982,6 |
| 4 | Petorca | 06-09-2026 01:45 | 7,8 | 90,4 | 0 | 0,5 | 22 | 0,6 | 982,8 |
| 3 | Petorca | 06-09-2026 01:30 | 7,2 | 91,5 | 0 | 0,5 | 32 | 0,6 | 982,9 |
| 2 | Petorca | 06-09-2026 01:15 | 6,8 | 94 | 0 | 0 | 28 | 0,6 | 982,9 |
| 1 | Petorca | 06-09-2026 01:00 | 6,4 | 93,7 | 0 | 0 | 13 | 0,6 | 983,1 |